TimeEDT,TemperatureF,Dew PointF,Humidity,Sea Level PressureIn,VisibilityMPH,Wind Direction,Wind SpeedMPH,Gust SpeedMPH,PrecipitationIn,Events,Conditions,WindDirDegrees,DateUTC
1:56 AM,52.0,33.1,49,29.86,10.0,Calm,Calm,-,N/A,,Clear,0,2013-03-16 05:56:00
2:56 AM,51.1,34.0,52,29.85,10.0,Calm,Calm,-,N/A,,Clear,0,2013-03-16 06:56:00
3:56 AM,51.1,35.1,54,29.83,10.0,Calm,Calm,-,N/A,,Scattered Clouds,0,2013-03-16 07:56:00
4:56 AM,50.0,36.0,59,29.82,10.0,Calm,Calm,-,N/A,,Partly Cloudy,0,2013-03-16 08:56:00
5:56 AM,51.1,36.0,56,29.82,10.0,Calm,Calm,-,N/A,,Scattered Clouds,0,2013-03-16 09:56:00
6:56 AM,51.1,37.0,59,29.83,10.0,Calm,Calm,-,N/A,,Clear,0,2013-03-16 10:56:00
7:56 AM,52.0,39.0,61,29.82,10.0,Variable,3.5,-,N/A,,Partly Cloudy,0,2013-03-16 11:56:00
8:56 AM,55.0,39.9,57,29.83,10.0,Variable,3.5,-,N/A,,Scattered Clouds,0,2013-03-16 12:56:00
9:56 AM,57.0,41.0,55,29.82,10.0,Variable,3.5,-,N/A,,Overcast,0,2013-03-16 13:56:00
10:56 AM,63.0,43.0,48,29.80,10.0,North,-9999.0,-,N/A,,Partly Cloudy,0,2013-03-16 14:56:00
11:56 AM,69.1,43.0,39,29.78,10.0,Variable,6.9,-,N/A,,Clear,0,2013-03-16 15:56:00
12:56 PM,71.1,43.0,36,29.76,10.0,SW,9.2,17.3,N/A,,Clear,220,2013-03-16 16:56:00
1:56 PM,72.0,43.0,35,29.74,10.0,WSW,8.1,-,N/A,,Clear,240,2013-03-16 17:56:00
2:56 PM,75.9,44.1,32,29.71,10.0,SSW,8.1,-,N/A,,Clear,210,2013-03-16 18:56:00
3:56 PM,78.1,43.0,29,29.68,10.0,SW,10.4,16.1,N/A,,Clear,230,2013-03-16 19:56:00
4:56 PM,77.0,43.0,30,29.67,10.0,SW,10.4,20.7,N/A,,Clear,220,2013-03-16 20:56:00
5:56 PM,75.9,43.0,31,29.65,10.0,Variable,4.6,-,N/A,,Clear,0,2013-03-16 21:56:00
6:56 PM,75.0,42.1,31,29.67,10.0,Variable,5.8,-,N/A,,Clear,0,2013-03-16 22:56:00
7:56 PM,72.0,42.1,34,29.70,10.0,Variable,4.6,-,N/A,,Clear,0,2013-03-16 23:56:00
8:56 PM,68.0,48.9,50,29.78,10.0,NW,5.8,-,0.00,Rain,Light Rain,310,2013-03-17 00:56:00
9:56 PM,66.9,48.9,52,29.80,10.0,West,4.6,-,0.00,,Mostly Cloudy,280,2013-03-17 01:56:00
10:56 PM,63.0,51.1,65,29.82,10.0,Calm,Calm,-,N/A,,Scattered Clouds,0,2013-03-17 02:56:00
11:56 PM,62.1,50.0,65,29.83,10.0,Calm,Calm,-,N/A,,Scattered Clouds,0,2013-03-17 03:56:00